Wind_Speed
31 30 31 32 33 35 36 37 38 40 42 42 40 40 39 40 41 42 43 45 47 48 47 48 50 50 50 50 51 53 55 56 57 57 57 56 55 55 54 53 53 53 52
30 32 34 35 36 34 37 38 40 41 43 46 48 47 47 45 45 46 47 48 49 50 53 54 54 55 54 55 55 55 55 55 57 59 61 60 58 58 57 57 57 56 55
36 36 37 38 38 38 35 38 40 41 43 44 47 49 50 50 50 51 53 54 54 53 54 54 56 56 57 57 57 56 55 56 58 59 61 62 62 63 61 59 58 58 58
38 40 41 42 43 39 40 44 48 51 51 51 51 54 55 55 57 57 57 58 59 59 59 59 59 58 58 58 58 59 60 59 60 60 61 64 64 62 61 62 64 61 59
37 40 40 45 45 46 52 56 56 56 57 57 58 59 61 62 62 61 62 62 64 65 65 65 63 63 62 62 61 60 61 62 66 68 68 68 68 68 66 61 59 62 63
41 42 43 49 55 58 61 62 58 58 58 59 59 59 60 61 62 63 65 65 66 67 68 68 70 72 73 72 72 71 71 71 70 71 71 73 75 76 75 72 65 64 61
49 50 53 57 60 63 62 61 61 61 60 59 60 62 64 65 65 66 68 69 70 71 72 71 73 74 75 76 80 80 80 80 80 78 77 75 77 80 82 84 81 75 71
54 55 57 59 60 60 60 61 61 62 64 63 63 65 65 67 68 69 70 71 72 74 76 79 78 78 81 84 83 86 82 81 80 81 80 79 79 81 83 85 89 88 83
55 57 58 60 62 61 61 62 64 66 66 68 67 66 67 71 73 72 74 75 78 79 79 82 84 84 86 86 87 90 89 88 87 87 87 87 88 85 84 86 89 93 92
59 60 63 65 65 65 65 67 68 67 68 67 69 70 72 73 74 72 73 74 75 77 79 81 84 87 88 90 91 92 94 94 95 94 93 92 91 92 94 93 92 92 97
60 63 64 65 66 68 70 70 70 70 70 70 70 70 70 72 74 75 77 80 82 84 86 88 89 91 92 92 93 95 95 96 98 100 101 99 99 97 96 97 98 98 100
64 66 67 68 70 72 72 72 71 69 69 69 70 72 74 75 77 79 81 82 84 86 88 89 91 92 93 94 95 96 97 97 97 97 97 99 101 103 102 100 99 98 99
68 70 70 70 71 71 71 70 70 70 71 72 73 74 77 79 81 83 84 86 87 88 89 89 90 91 92 94 95 95 95 96 96 97 97 97 99 100 102 104 104 102 102
71 72 72 72 69 69 69 69 70 71 71 74 75 77 79 81 82 85 86 87 88 88 89 91 92 92 92 92 92 91 90 90 90 92 94 96 97 99 101 102 104 107 105
71 71 69 67 66 67 68 69 71 73 75 76 76 78 80 81 83 85 86 88 89 90 89 86 83 80 78 77 77 77 77 79 80 81 84 86 88 90 92 97 100 106 108
69 69 68 68 67 68 70 72 73 74 75 76 78 80 82 83 85 86 87 85 81 76 72 70 68 68 67 69 71 73 76 77 79 79 79 80 81 83 85 87 89 92 97
67 66 66 66 68 69 71 72 73 75 76 78 80 81 83 84 83 79 74 70 67 65 63 64 64 65 68 71 73 75 75 73 73 72 71 71 72 73 75 76 78 80 83
65 65 67 68 69 70 71 73 76 78 79 81 81 82 80 75 71 67 64 61 61 61 62 63 65 67 69 70 71 72 73 71 70 67 66 67 68 68 69 69 70 71 74
67 68 69 70 72 73 75 76 78 80 81 80 78 74 70 67 64 61 60 60 61 62 64 64 65 66 68 71 72 72 71 67 65 64 65 64 64 59 57 55 55 56 56
68 69 72 73 74 75 77 79 80 80 78 74 68 65 62 61 60 61 61 62 62 62 63 64 66 68 69 71 71 70 66 63 61 58 53 51 53 50 49 48 47 47 50
69 72 73 75 77 78 79 79 77 72 66 62 60 59 59 59 60 60 62 62 63 63 65 66 67 68 70 69 67 63 61 57 51 48 45 45 44 44 47 49 50 53 55
73 76 76 76 77 77 76 72 65 60 57 57 57 57 57 58 58 59 61 62 64 66 67 67 67 68 67 63 60 58 52 47 45 43 41 41 43 43 44 46 49 52 55
78 77 77 76 74 71 66 60 57 56 55 55 55 57 57 58 59 61 63 65 67 67 67 67 67 63 58 59 55 48 43 42 43 43 43 45 46 46 46 48 51 54 57
75 74 72 66 63 59 58 56 55 55 54 55 56 57 58 60 62 63 65 65 65 65 66 65 61 57 56 53 50 42 41 42 43 42 43 44 45 46 48 50 52 55 58
65 62 59 55 54 56 56 56 56 55 55 56 59 60 61 62 62 62 62 63 63 64 62 61 59 57 52 50 43 40 39 40 41 41 43 45 47 49 50 52 54 57 59
56 54 52 53 54 54 54 55 55 56 58 60 60 61 61 62 61 60 59 58 58 58 59 61 61 58 53 45 38 37 38 39 41 44 46 49 50 51 52 53 54 54 53
Wind_Direction
287 286 286 287 287 288 288 289 286 286 287 286 282 280 277 277 276 276 272 268 269 270 268 269 269 269 268 266 265 265 265 267 267 266 265 264 263 262 262 262 264 266 268
284 286 285 282 283 284 284 284 283 283 282 282 281 281 278 273 272 271 269 269 267 266 267 268 268 269 268 268 267 265 265 265 264 266 268 266 264 261 261 261 261 261 262
290 289 291 290 286 285 285 287 287 286 284 284 283 281 280 278 275 271 272 268 265 265 265 264 265 266 268 269 269 267 266 265 264 264 264 266 265 263 262 260 259 259 259
294 294 293 289 285 281 286 287 286 284 281 277 275 275 275 274 274 273 269 265 264 264 264 265 264 263 263 263 264 263 262 261 262 264 264 263 263 261 260 261 261 257 256
290 288 287 290 282 280 284 287 286 282 278 274 273 269 267 268 269 270 272 271 268 265 265 266 267 267 265 263 263 265 266 265 262 259 261 262 263 263 259 253 257 261 261
286 281 281 283 284 285 284 285 285 282 279 277 276 273 273 271 270 271 271 270 270 270 267 267 268 269 270 272 271 271 269 270 268 267 265 263 262 263 262 259 253 251 257
290 291 288 286 286 287 287 286 285 284 282 278 274 275 274 273 272 271 270 271 271 270 271 270 270 271 272 272 273 273 272 272 274 272 269 267 265 263 263 262 261 255 250
289 290 289 288 288 287 286 284 283 282 281 277 274 273 272 271 271 271 271 273 273 274 273 276 277 274 272 272 273 275 277 276 274 272 270 271 270 268 266 264 262 260 259
286 285 285 284 283 283 282 282 281 278 277 278 277 276 273 269 275 275 276 275 275 276 277 277 279 279 278 279 277 278 280 280 281 279 275 273 271 269 270 269 267 264 259
284 284 283 283 284 285 284 282 281 280 278 275 273 273 275 275 277 279 279 281 282 283 284 284 284 284 283 282 281 280 280 280 280 280 279 279 277 273 271 270 269 268 266
283 281 281 283 283 282 281 281 281 280 279 278 280 281 283 286 287 287 287 287 287 286 285 284 284 283 282 281 279 278 278 277 277 277 277 277 277 276 274 271 269 268 266
282 282 283 284 283 283 284 284 283 284 284 285 285 286 286 286 286 287 287 287 286 286 285 284 284 283 282 280 279 278 277 277 276 275 273 273 273 273 273 271 271 269 266
283 282 283 284 283 283 282 283 283 284 285 286 287 287 287 288 289 289 289 288 287 286 285 284 283 282 282 281 280 279 278 277 277 276 274 273 271 270 270 271 271 270 267
283 284 284 283 283 284 284 285 286 286 286 287 288 289 290 290 290 289 288 288 287 286 286 286 285 284 283 282 281 281 280 278 277 276 275 274 272 271 269 268 267 267 267
283 283 284 285 285 285 286 286 286 287 288 290 290 289 288 289 290 290 290 290 290 289 288 288 287 286 286 285 284 283 283 282 282 281 279 277 275 273 271 269 267 266 266
284 285 285 286 286 286 286 287 288 288 288 289 290 292 292 292 292 291 291 291 291 290 290 290 290 289 288 287 286 287 287 287 285 284 282 280 278 276 274 272 271 268 267
284 285 285 284 284 285 286 287 287 289 291 292 292 292 292 292 292 291 291 291 290 290 290 289 288 288 288 288 289 290 291 290 288 287 284 282 281 278 275 273 272 270 270
284 283 282 283 284 285 287 289 291 292 293 293 293 293 293 292 291 291 291 291 290 290 290 290 290 291 292 292 293 294 293 292 292 290 287 286 283 281 279 275 273 270 268
284 284 285 286 288 289 290 292 293 294 294 293 293 292 291 291 292 293 292 291 291 291 292 293 294 293 294 295 296 294 293 293 291 290 289 288 286 285 282 279 276 274 273
285 286 287 289 290 291 292 293 293 293 293 292 290 290 291 291 291 292 292 293 293 293 293 294 295 296 296 297 296 295 294 291 290 287 286 285 286 283 280 279 278 276 274
287 289 290 290 291 292 293 293 292 291 290 290 289 289 290 291 292 293 293 293 294 295 296 297 297 298 298 298 298 296 294 292 287 285 283 281 285 287 284 282 281 279 277
288 290 291 292 293 293 292 290 289 288 288 288 288 289 290 291 291 292 293 294 295 296 297 297 298 299 300 300 299 297 293 289 287 286 284 287 289 288 289 287 286 285 284
291 291 293 294 292 289 288 289 289 289 289 290 291 291 292 293 293 294 295 296 297 297 297 298 299 300 300 301 299 293 288 290 291 292 293 292 293 292 291 291 290 289 288
292 292 293 290 288 287 287 288 288 288 289 289 289 290 293 294 295 295 296 297 297 297 298 299 299 301 302 300 295 286 286 287 287 290 291 292 293 294 294 294 293 292 292
294 291 290 289 288 287 288 288 289 290 290 290 293 294 294 295 295 296 296 296 297 298 299 299 301 302 299 298 285 282 284 285 286 290 294 296 298 297 297 296 295 294 294
291 291 290 288 288 289 289 290 291 292 293 293 293 293 294 295 296 296 297 297 297 298 299 301 303 302 301 295 281 284 288 289 292 295 297 298 299 299 299 297 296 292 291
Height
5809 5808 5805 5804 5802 5802 5802 5801 5799 5798 5798 5796 5793 5791 5788 5787 5785 5784 5781 5779 5778 5777 5774 5774 5773 5772 5771 5770 5769 5767 5767 5767 5767 5767 5767 5769 5770 5771 5771 5772 5773 5774 5774
5799 5799 5799 5797 5796 5793 5793 5791 5790 5789 5788 5786 5784 5781 5780 5776 5773 5772 5771 5769 5766 5764 5763 5762 5760 5759 5758 5757 5756 5755 5754 5753 5753 5754 5754 5756 5756 5756 5758 5759 5759 5760 5761
5791 5789 5788 5788 5787 5785 5782 5782 5780 5778 5776 5774 5773 5772 5770 5767 5765 5762 5760 5758 5756 5752 5750 5748 5746 5745 5745 5744 5743 5742 5741 5740 5738 5738 5738 5739 5742 5743 5742 5744 5744 5745 5746
5781 5780 5779 5778 5776 5773 5771 5769 5767 5766 5765 5762 5760 5759 5757 5754 5752 5750 5747 5745 5742 5739 5737 5735 5732 5731 5729 5728 5727 5726 5725 5724 5724 5723 5722 5722 5723 5726 5732 5729 5729 5730 5731
5771 5769 5768 5766 5763 5762 5759 5756 5754 5752 5750 5748 5745 5742 5740 5739 5736 5734 5732 5730 5728 5725 5723 5721 5718 5717 5714 5711 5711 5711 5711 5709 5707 5706 5706 5705 5704 5705 5709 5717 5718 5715 5716
5761 5757 5756 5753 5749 5747 5744 5742 5739 5738 5736 5734 5732 5730 5728 5724 5722 5719 5716 5712 5710 5708 5707 5704 5703 5701 5699 5697 5695 5693 5693 5692 5691 5689 5688 5688 5688 5687 5686 5691 5700 5703 5702
5746 5741 5738 5736 5733 5729 5726 5724 5722 5721 5719 5718 5715 5713 5710 5707 5705 5701 5698 5696 5693 5690 5686 5684 5683 5681 5680 5678 5677 5675 5673 5672 5670 5669 5668 5667 5666 5667 5667 5668 5671 5681 5686
5732 5727 5723 5720 5717 5713 5710 5707 5706 5705 5703 5700 5698 5695 5692 5689 5686 5683 5680 5677 5675 5672 5668 5664 5661 5658 5657 5656 5654 5653 5651 5650 5649 5647 5646 5646 5644 5643 5643 5645 5645 5651 5658
5719 5714 5710 5705 5702 5699 5696 5693 5691 5688 5685 5682 5679 5676 5674 5672 5669 5666 5663 5659 5655 5652 5650 5646 5642 5638 5636 5634 5631 5628 5627 5626 5624 5623 5622 5621 5619 5620 5620 5619 5620 5620 5628
5705 5700 5695 5691 5687 5683 5680 5676 5673 5670 5668 5666 5663 5661 5657 5654 5650 5647 5644 5642 5638 5634 5631 5627 5623 5619 5616 5613 5610 5607 5604 5602 5600 5598 5598 5596 5595 5596 5594 5594 5596 5596 5596
5687 5683 5678 5675 5672 5667 5663 5661 5658 5655 5651 5647 5644 5642 5639 5636 5632 5628 5625 5621 5617 5614 5610 5606 5602 5598 5594 5590 5588 5585 5582 5581 5578 5573 5570 5569 5567 5568 5569 5570 5570 5571 5570
5670 5667 5664 5661 5657 5652 5647 5643 5639 5636 5633 5630 5628 5624 5621 5617 5612 5608 5605 5601 5596 5592 5587 5582 5577 5572 5568 5564 5560 5558 5554 5552 5551 5549 5547 5544 5541 5540 5540 5541 5543 5546 5546
5656 5652 5649 5646 5640 5635 5630 5626 5622 5619 5616 5612 5609 5604 5599 5594 5590 5585 5580 5576 5571 5566 5561 5556 5551 5545 5540 5535 5531 5527 5525 5523 5520 5518 5516 5515 5513 5513 5511 5510 5512 5514 5516
5638 5634 5630 5626 5623 5618 5613 5608 5604 5601 5597 5593 5589 5584 5578 5572 5567 5561 5556 5551 5545 5540 5535 5529 5524 5518 5513 5507 5502 5499 5496 5494 5491 5487 5484 5482 5481 5480 5480 5480 5481 5481 5484
5621 5615 5612 5609 5606 5601 5596 5591 5586 5582 5577 5573 5569 5564 5558 5552 5545 5539 5532 5526 5519 5514 5508 5502 5497 5491 5485 5479 5475 5472 5470 5466 5464 5460 5455 5452 5450 5448 5448 5446 5449 5448 5449
5603 5599 5596 5592 5588 5583 5578 5572 5568 5563 5559 5554 5548 5541 5534 5527 5520 5514 5508 5502 5495 5489 5484 5479 5475 5470 5464 5458 5453 5449 5447 5443 5438 5434 5430 5425 5422 5419 5417 5416 5416 5417 5416
5586 5583 5579 5575 5571 5566 5561 5556 5548 5543 5539 5532 5525 5519 5512 5504 5498 5492 5486 5481 5476 5471 5466 5462 5457 5453 5446 5440 5435 5429 5424 5419 5414 5409 5404 5401 5396 5392 5390 5389 5388 5389 5386
5571 5567 5563 5559 5554 5548 5542 5536 5529 5522 5516 5510 5502 5495 5488 5482 5477 5472 5468 5463 5459 5455 5450 5445 5439 5434 5427 5421 5414 5408 5402 5397 5392 5386 5381 5377 5373 5368 5366 5365 5364 5363 5361
5553 5548 5544 5540 5534 5528 5521 5515 5509 5501 5494 5488 5480 5473 5468 5463 5458 5454 5450 5446 5443 5438 5432 5427 5422 5416 5409 5401 5395 5387 5381 5377 5372 5367 5360 5354 5350 5347 5344 5341 5341 5341 5340
5534 5529 5524 5519 5514 5507 5501 5496 5489 5481 5474 5466 5460 5454 5450 5446 5442 5438 5434 5429 5424 5420 5415 5410 5403 5397 5390 5381 5374 5366 5361 5358 5354 5349 5344 5339 5333 5331 5328 5326 5325 5325 5323
5514 5509 5505 5501 5494 5488 5481 5475 5468 5461 5454 5449 5444 5439 5435 5431 5427 5422 5416 5411 5406 5401 5396 5393 5386 5380 5371 5364 5354 5348 5342 5338 5336 5333 5331 5326 5320 5316 5314 5311 5310 5308 5307
5497 5491 5486 5481 5474 5467 5460 5454 5449 5443 5439 5434 5429 5425 5420 5416 5411 5406 5400 5395 5389 5385 5379 5374 5369 5362 5354 5345 5338 5332 5326 5323 5321 5319 5316 5312 5307 5304 5301 5297 5294 5291 5288
5478 5471 5465 5461 5454 5446 5440 5436 5432 5427 5423 5418 5413 5408 5404 5399 5394 5389 5383 5378 5371 5366 5362 5356 5351 5346 5338 5330 5322 5318 5314 5311 5308 5305 5302 5297 5294 5290 5287 5282 5278 5274 5269
5456 5450 5445 5440 5434 5428 5424 5421 5416 5412 5407 5402 5398 5393 5388 5382 5377 5372 5367 5361 5355 5349 5344 5339 5334 5329 5323 5315 5309 5306 5304 5300 5297 5294 5291 5286 5282 5277 5272 5268 5262 5256 5250
5435 5430 5426 5422 5418 5412 5408 5405 5400 5396 5392 5387 5381 5377 5372 5366 5362 5356 5351 5345 5338 5333 5327 5322 5317 5313 5308 5301 5296 5293 5291 5288 5285 5281 5277 5272 5268 5263 5257 5252 5245 5238 5232
5420 5416 5411 5406 5402 5398 5394 5389 5384 5380 5375 5371 5365 5360 5355 5350 5345 5340 5335 5328 5323 5317 5310 5305 5300 5296 5290 5286 5283 5281 5278 5275 5271 5268 5263 5258 5253 5247 5242 5236 5230 5221 5215